Location: Izdebnik
(49.8699°N, 19.7619°E)
Time: 21:37:23
(UTC+01:00)

ISS - Pass Details

Date: 24 January 2019
Orbit: 403 x 411 km, 51.6° (Epoch: 20 February)

Event Time Altitude Azimuth Distance (km) Brightness Sun altitude
Rises 17:43:27 0° 207° (SSW) 2,323 0.7 -13.0°
Reaches altitude 10° 17:45:53 10° 190° (S) 1,469 -0.7 -13.4°
Maximum altitude 17:48:20 20° 141° (SE) 1,030 -2.0 -13.8°
Enters shadow 17:49:06 18° 122° (ESE) 1,082 -2.1 -13.9°
